(25229) Karenkitt = 1986 XR3 = 1998 TV30 = 2000 AJ96

Discovered at Anderson Mesa on 1998-10-10 by LONEOS.
(25229) Karenkitt = 1998 TV30

Karen Kitt (b. 1949) has been a volunteer in the Lowell Observatory Archives since 2013. She has organized and cataloged the Pluto Collection, the Comet Halley Collection, and the correspondence of former Lowell astronomer C.O. Lampland. She is currently digitizing Lampland's letters for the observatory's digital archives. [Ref: Minor Planet Circ. 99354]

Orbit

Orbit type: Main Belt

Note: WebGL enabled browser required.

epoch2024-03-31.0
epoch JD2460400.5
perihelion date2022-08-18.08925
perihelion JD2459809.58925
argument of perihelion (°)346.45489
ascending node (°)344.74852
inclination (°)2.11528
eccentricity0.1358777
perihelion distance (AU)2.2025862
Tisserand w.r.t. Jupiter3.4
ΔV w.r.t. Earth (km/sec)9.3
semimajor axis (AU)2.5489286
mean anomaly (°)143.11634
mean daily motion (°/day)0.24219620
aphelion distance (AU)2.895
period (years)4.07
P-vector [x]0.87637732
P-vector [y]-0.43837256
P-vector [z]-0.19948004
Q-vector [x]0.48152727
Q-vector [y]0.78916191
Q-vector [z]0.38125447
absolute magnitude14.8
phase slope0.15
uncertainty0
referenceMPEC 2024-C115
observations used2718
oppositions23
arc length (days)17005
first opposition used1977
last opposition used2024
residual rms (arc-secs)0.64
perturbers coarse indicatorM-v
perturbers precise indicator003Ek
first observation date used1977-07-21.0
last observation date used2024-02-10.0
computer nameMPCLINUX
JD of orbit computation2456966.749334
perihelion JD uncertainty (days)4.6783E-05
argument of perihelion uncertainty (°)7.0008E-05
ascending node uncertainty (°)6.9009E-05
inclination uncertainty (°)3.6243E-06
eccentricity uncertainty 3.5248E-08
perihelion distance uncertainty (AU)9.1031E-08
Minimum Orbit Intersection Distances (in AU)
for orbit epoch: 2460400.5, reference: E2024-GD4
Mercury1.79318
Venus1.4759
Earth1.19175
Mars0.82101
Jupiter2.42491
Saturn6.27123
Uranus15.5515
Neptune27.3168

Observations

2766 total observations over interval: 1977 07 21.56315 – 2024 02 10.386409
These data are available for download (format description).

Date (UT) J2000 RA J2000 Dec Magn Location Ref
1977 07 21.56315 20 05 05.71 -23 13 48.2   260 – Siding Spring Observatory-DSS MPS 32070
1977 07 21.61523 20 05 02.60 -23 13 54.4   260 – Siding Spring Observatory-DSS MPS 32070
1980 03 20.52496 11 28 15.30 +02 50 33.8   260 – Siding Spring Observatory-DSS MPS 32070
1980 03 20.57357 11 28 12.80 +02 50 47.6   260 – Siding Spring Observatory-DSS MPS 32070
1986 12 04.95556 04 30 26.26 +25 20 26.5   010 – Caussols MPC 11578
1998 10 02.34204 03 09 18.717 +20 17 14.41 16.91 J G91 – Whipple Observatory, Mt. Hopkins--2MASS MPS 80888
1998 10 10.32057 03 05 13.62 +20 12 06.1 17.8 R 699 – Lowell Observatory-LONEOS MPS 2871
1998 10 10.34043 03 05 12.79 +20 12 04.4   699 – Lowell Observatory-LONEOS MPS 2871
1998 10 10.36028 03 05 11.93 +20 12 04.0   699 – Lowell Observatory-LONEOS MPS 2871
1998 10 18.35964 02 59 20.87 +19 58 09.1 18.0 R 699 – Lowell Observatory-LONEOS MPS 2871
1998 10 18.38377 02 59 19.55 +19 58 04.9   699 – Lowell Observatory-LONEOS MPS 2871
1998 10 18.40862 02 59 18.28 +19 58 02.3   699 – Lowell Observatory-LONEOS MPS 2871
1998 11 10.25384 02 37 28.86 +18 39 27.1 18.3   704 – Lincoln Laboratory ETS, New Mexico MPS 3086
1998 11 10.27296 02 37 27.71 +18 39 20.5 18.9   704 – Lincoln Laboratory ETS, New Mexico MPS 3086
1998 11 10.29203 02 37 26.43 +18 39 15.4 18.8   704 – Lincoln Laboratory ETS, New Mexico MPS 3086
1998 11 10.31109 02 37 25.44 +18 39 11.7 18.8   704 – Lincoln Laboratory ETS, New Mexico MPS 3086
1998 11 10.33022 02 37 24.19 +18 39 05.0 18.7   704 – Lincoln Laboratory ETS, New Mexico MPS 3086
1998 11 11.17431 02 36 35.68 +18 35 33.1 18.1   704 – Lincoln Laboratory ETS, New Mexico MPS 3086
1998 11 11.19608 02 36 34.36 +18 35 28.6 18.2   704 – Lincoln Laboratory ETS, New Mexico MPS 3086
1998 11 11.21821 02 36 33.23 +18 35 24.2 19.6   704 – Lincoln Laboratory ETS, New Mexico MPS 3086
1998 11 11.23998 02 36 31.71 +18 35 16.7 19.0   704 – Lincoln Laboratory ETS, New Mexico MPS 3086
1998 11 15.31351 02 32 43.06 +18 18 09.1 17.5 R 699 – Lowell Observatory-LONEOS MPS 4136
1998 11 15.33341 02 32 41.74 +18 18 03.5   699 – Lowell Observatory-LONEOS MPS 4136
1998 11 15.35330 02 32 40.76 +18 17 58.5   699 – Lowell Observatory-LONEOS MPS 4136
1998 11 20.25146 02 28 26.70 +17 57 42.1 17.9 R 699 – Lowell Observatory-LONEOS MPS 4481
1998 11 20.26931 02 28 25.74 +17 57 37.9   699 – Lowell Observatory-LONEOS MPS 4481
1998 11 20.28722 02 28 24.85 +17 57 33.2   699 – Lowell Observatory-LONEOS MPS 4481
1998 11 25.27204 02 24 36.66 +17 38 04.3 18.7 V 691 – Steward Observatory, Kitt Peak-Spacewatch MPS 80888
1998 11 25.29400 02 24 35.67 +17 37 59.4 18.8 V 691 – Steward Observatory, Kitt Peak-Spacewatch MPS 80888
1998 11 25.31655 02 24 34.68 +17 37 54.3 19.0 V 691 – Steward Observatory, Kitt Peak-Spacewatch MPS 80888
1998 12 08.17453 02 17 46.50 +16 57 53.9 18.5 R 699 – Lowell Observatory-LONEOS MPS 37243
1998 12 08.20000 02 17 45.97 +16 57 50.8   699 – Lowell Observatory-LONEOS MPS 37243
1998 12 08.22546 02 17 45.38 +16 57 47.7   699 – Lowell Observatory-LONEOS MPS 37243
2000 01 04.39061 10 13 59.38 +12 25 56.4 19.5   704 – Lincoln Laboratory ETS, New Mexico MPS 9327
2000 01 04.40527 10 13 59.08 +12 25 57.7 19.9   704 – Lincoln Laboratory ETS, New Mexico MPS 9327
2000 01 04.42019 10 13 58.93 +12 25 59.7 20.0   704 – Lincoln Laboratory ETS, New Mexico MPS 9327
2000 01 04.43497 10 13 58.57 +12 26 00.3 19.7   704 – Lincoln Laboratory ETS, New Mexico MPS 9327
2000 01 07.37938 10 13 01.07 +12 31 03.8 19.4   704 – Lincoln Laboratory ETS, New Mexico MPS 9327
2000 01 07.41069 10 13 00.37 +12 31 05.2 19.7   704 – Lincoln Laboratory ETS, New Mexico MPS 9327
2000 01 07.42548 10 13 00.08 +12 31 07.5 19.9   704 – Lincoln Laboratory ETS, New Mexico MPS 9327
2000 02 04.30162 09 54 19.62 +14 03 50.6 19.0   704 – Lincoln Laboratory ETS, New Mexico MPS 9898
2000 02 04.31608 09 54 18.86 +14 03 54.3 19.1   704 – Lincoln Laboratory ETS, New Mexico MPS 9898
2000 02 04.33048 09 54 18.02 +14 03 59.2 18.9   704 – Lincoln Laboratory ETS, New Mexico MPS 9898
2000 02 04.35916 09 54 16.40 +14 04 05.8 19.0   704 – Lincoln Laboratory ETS, New Mexico MPS 9898
2000 02 05.39498 09 53 19.67 +14 08 31.8 18.3 V 691 – Steward Observatory, Kitt Peak-Spacewatch MPS 9898
2000 02 05.41688 09 53 18.42 +14 08 37.4 18.2 V 691 – Steward Observatory, Kitt Peak-Spacewatch MPS 9898
2000 02 05.43920 09 53 17.16 +14 08 43.1 18.1 V 691 – Steward Observatory, Kitt Peak-Spacewatch MPS 9898
2000 02 06.23798 09 52 33.37 +14 12 08.9 18.7   704 – Lincoln Laboratory ETS, New Mexico MPS 9898
2000 02 06.25293 09 52 32.53 +14 12 12.3 18.8   704 – Lincoln Laboratory ETS, New Mexico MPS 9898
2000 02 06.26783 09 52 31.64 +14 12 16.6 18.6   704 – Lincoln Laboratory ETS, New Mexico MPS 9898
2000 02 06.28277 09 52 30.79 +14 12 21.2 19.1   704 – Lincoln Laboratory ETS, New Mexico MPS 9898
2000 02 06.29768 09 52 29.96 +14 12 24.8 19.0   704 – Lincoln Laboratory ETS, New Mexico MPS 9898
2000 02 06.31975 09 52 28.71 +14 12 30.3 18.4 R 695 – Kitt Peak MPS 10796
2000 02 06.45372 09 52 21.05 +14 13 04.9   695 – Kitt Peak MPS 10796
2000 02 11.32414 09 47 46.35 +14 34 04.2 19.2   704 – Lincoln Laboratory ETS, New Mexico MPS 9898
2000 02 11.33853 09 47 45.53 +14 34 07.1 18.3   704 – Lincoln Laboratory ETS, New Mexico MPS 9899
2000 02 11.35292 09 47 44.67 +14 34 10.9 19.1   704 – Lincoln Laboratory ETS, New Mexico MPS 9899
2000 02 11.36735 09 47 43.93 +14 34 14.0 18.7   704 – Lincoln Laboratory ETS, New Mexico MPS 9899
2000 02 27.25298 09 32 58.66 +15 37 07.2 18.3 R 703 – Catalina Sky Survey MPS 10796
2000 02 27.26885 09 32 57.91 +15 37 11.5 18.7 R 703 – Catalina Sky Survey MPS 10796
2000 02 27.28461 09 32 57.11 +15 37 15.1 19.2 R 703 – Catalina Sky Survey MPS 10796
2000 02 27.30040 09 32 56.26 +15 37 18.9 18.2 R 703 – Catalina Sky Survey MPS 10796
2000 02 29.11263 09 31 23.87 +15 43 23.8 18.7   704 – Lincoln Laboratory ETS, New Mexico MPS 10796
2000 02 29.12607 09 31 23.17 +15 43 26.3 19.0   704 – Lincoln Laboratory ETS, New Mexico MPS 10796
2000 02 29.13952 09 31 22.47 +15 43 30.0 18.7   704 – Lincoln Laboratory ETS, New Mexico MPS 10796
2000 02 29.15297 09 31 21.82 +15 43 32.5 18.9   704 – Lincoln Laboratory ETS, New Mexico MPS 10796
2000 02 29.16644 09 31 21.11 +15 43 34.7 18.6   704 – Lincoln Laboratory ETS, New Mexico MPS 10796
2000 03 03.12637 09 28 56.24 +15 52 53.0 19.1   704 – Lincoln Laboratory ETS, New Mexico MPS 10796
2000 03 03.13969 09 28 55.61 +15 52 54.6 19.3   704 – Lincoln Laboratory ETS, New Mexico MPS 10796
2000 03 03.15302 09 28 54.94 +15 52 57.4 18.5   704 – Lincoln Laboratory ETS, New Mexico MPS 10796
2000 03 03.16634 09 28 54.27 +15 53 00.1 18.5   704 – Lincoln Laboratory ETS, New Mexico MPS 10796
2000 03 03.17967 09 28 53.61 +15 53 02.3 18.4   704 – Lincoln Laboratory ETS, New Mexico MPS 10796
2000 03 05.24134 09 27 17.91 +15 59 00.6 18.6   704 – Lincoln Laboratory ETS, New Mexico MPS 10796
2000 03 05.25497 09 27 17.22 +15 59 03.9 18.4   704 – Lincoln Laboratory ETS, New Mexico MPS 10796
2000 03 05.26948 09 27 16.60 +15 59 05.3 18.4   704 – Lincoln Laboratory ETS, New Mexico MPS 10796
2000 03 05.28294 09 27 15.90 +15 59 08.0 18.8   704 – Lincoln Laboratory ETS, New Mexico MPS 10796
2000 03 05.29642 09 27 15.34 +15 59 09.7 19.1   704 – Lincoln Laboratory ETS, New Mexico MPS 10796
2000 03 06.16398 09 26 36.74 +16 01 33.3 19.4   704 – Lincoln Laboratory ETS, New Mexico MPS 10796
2000 03 06.17725 09 26 36.13 +16 01 34.9 19.3   704 – Lincoln Laboratory ETS, New Mexico MPS 10796
2000 03 06.19051 09 26 35.49 +16 01 37.6 19.2   704 – Lincoln Laboratory ETS, New Mexico MPS 10796
2000 03 06.20378 09 26 34.89 +16 01 39.6 19.0   704 – Lincoln Laboratory ETS, New Mexico MPS 10796
2000 03 06.21702 09 26 34.24 +16 01 40.7 19.7   704 – Lincoln Laboratory ETS, New Mexico MPS 10796
